QLK32B YHOT-YMBT

Flight info

Callsign QLK32B
Flight time 0h 7m
Altitude 7500
Route YMBT
Aircraft DH8B/M-SDFGR/S

Departure

Time 2026-04-13 06:07
Airport Mount Hotham Airport (YHOT)

Arrival

Time 2026-04-13 06:15
Airport Mount Beauty Airport (YMBT)
Time Latitude Longitude Altitude Speed Heading
2026-04-13 05:56 -37.05119 147.33863 4281 ft 0 kts 176°
2026-04-13 06:05 -37.05120 147.33863 4273 ft 4 kts 176°
2026-04-13 06:05 -37.05145 147.33908 4274 ft 6 kts 62°
2026-04-13 06:06 -37.05144 147.33910 4274 ft 0 kts 62°
2026-04-13 06:06 -37.05143 147.33913 4279 ft 5 kts 62°
2026-04-13 06:07 -37.05094 147.33982 4279 ft 13 kts 27°
2026-04-13 06:07 -37.04970 147.33806 4285 ft 73 kts 303°
2026-04-13 06:07 -37.04528 147.32968 4327 ft 147 kts 303°
2026-04-13 06:07 -37.03922 147.31844 4951 ft 159 kts 300°
2026-04-13 06:08 -37.03257 147.30628 5339 ft 185 kts 302°
2026-04-13 06:08 -37.01507 147.27819 6254 ft 210 kts 307°
2026-04-13 06:08 -37.00490 147.26452 6756 ft 218 kts 315°
2026-04-13 06:09 -36.99073 147.25663 7332 ft 233 kts 352°
2026-04-13 06:09 -36.97406 147.26000 7529 ft 260 kts 21°
2026-04-13 06:09 -36.95646 147.26794 7510 ft 276 kts
2026-04-13 06:09 -36.93710 147.26798 7529 ft 283 kts 346°
2026-04-13 06:10 -36.91878 147.25917 7533 ft 283 kts 325°
2026-04-13 06:10 -36.90434 147.24384 7545 ft 266 kts 311°
2026-04-13 06:10 -36.88894 147.23135 7547 ft 269 kts 339°
2026-04-13 06:10 -36.87059 147.22700 7521 ft 268 kts 349°
2026-04-13 06:11 -36.85272 147.22187 7521 ft 261 kts 339°
2026-04-13 06:11 -36.83591 147.21371 7524 ft 258 kts 335°
2026-04-13 06:11 -36.81914 147.20596 7516 ft 257 kts 339°
2026-04-13 06:11 -36.80211 147.19911 7519 ft 257 kts 339°
2026-04-13 06:12 -36.78510 147.19236 7514 ft 258 kts 340°
2026-04-13 06:12 -36.76803 147.18565 7416 ft 259 kts 341°
2026-04-13 06:12 -36.74988 147.18024 6901 ft 278 kts 355°
2026-04-13 06:12 -36.73132 147.18593 6815 ft 273 kts 19°
2026-04-13 06:13 -36.71244 147.18941 6281 ft 279 kts 356°
2026-04-13 06:13 -36.69404 147.18482 5755 ft 263 kts 338°
2026-04-13 06:13 -36.68123 147.17068 4768 ft 235 kts 293°
2026-04-13 06:14 -36.68558 147.14813 3654 ft 191 kts 219°
2026-04-13 06:14 -36.71559 147.15716 1636 ft 185 kts 147°
2026-04-13 06:14 -36.72510 147.16461 1208 ft 158 kts 155°
2026-04-13 06:15 -36.73157 147.16892 1127 ft 43 kts 152°
2026-04-13 06:15 -36.73368 147.17035 1131 ft 18 kts 150°
2026-04-13 06:15 -36.73438 147.17062 1128 ft 5 kts 41°
2026-04-13 06:15 -36.73369 147.17055 1127 ft 7 kts 50°
2026-04-13 06:16 -36.73349 147.17099 1130 ft 9 kts 52°
2026-04-13 06:16 -36.73356 147.17106 1132 ft 2 kts 246°